Time,TemperatureF,DewpointF,PressureIn,WindDirection,WindDirectionDegrees,WindSpeedMPH,WindSpeedGustMPH,Humidity,HourlyPrecipIn,Conditions,Clouds,dailyrainin,SoftwareType,DateUTC
2013-06-11 00:00:00,52.1,47.1,30.00,West,281,6.0,7.0,83,0.00,,,0.00,Wunderground v.1.15,2013-06-11 07:00:00,
2013-06-11 00:05:00,52.1,47.1,30.00,WNW,283,6.0,8.0,83,0.00,,,0.00,Wunderground v.1.15,2013-06-11 07:05:00,
2013-06-11 00:10:00,52.0,47.0,30.00,WNW,297,7.0,7.0,83,0.00,,,0.00,Wunderground v.1.15,2013-06-11 07:10:00,
2013-06-11 00:15:00,51.7,46.4,30.00,West,281,6.0,7.0,82,0.00,,,0.00,Wunderground v.1.15,2013-06-11 07:15:00,
2013-06-11 00:20:00,51.2,45.9,30.00,NW,306,4.0,4.0,82,0.00,,,0.00,Wunderground v.1.15,2013-06-11 07:20:00,
2013-06-11 00:25:00,50.6,45.6,30.00,NW,306,2.0,4.0,83,0.00,,,0.00,Wunderground v.1.15,2013-06-11 07:25:00,
2013-06-11 00:30:00,50.2,45.6,30.01,NW,311,1.0,3.0,84,0.00,,,0.00,Wunderground v.1.15,2013-06-11 07:30:00,
2013-06-11 00:35:00,50.0,45.7,30.01,NW,313,1.0,3.0,85,0.00,,,0.00,Wunderground v.1.15,2013-06-11 07:35:00,
2013-06-11 00:40:00,49.9,45.9,30.01,NNW,336,1.0,2.0,86,0.00,,,0.00,Wunderground v.1.15,2013-06-11 07:40:00,
2013-06-11 00:45:00,49.8,46.1,30.00,NNW,336,1.0,2.0,87,0.00,,,0.00,Wunderground v.1.15,2013-06-11 07:45:00,
2013-06-11 00:50:00,49.8,46.1,30.01,NNW,336,1.0,1.0,87,0.00,,,0.00,Wunderground v.1.15,2013-06-11 07:50:00,
2013-06-11 00:55:00,49.8,46.1,30.01,NNW,336,1.0,1.0,87,0.00,,,0.00,Wunderground v.1.15,2013-06-11 07:55:00,
2013-06-11 01:00:00,49.9,46.2,30.01,NNW,329,1.0,3.0,87,0.00,,,0.00,Wunderground v.1.15,2013-06-11 08:00:00,
2013-06-11 01:05:00,50.1,46.7,30.00,NW,316,1.0,3.0,88,0.00,,,0.00,Wunderground v.1.15,2013-06-11 08:05:00,
2013-06-11 01:10:00,50.2,46.5,30.00,NW,316,1.0,1.0,87,0.00,,,0.00,Wunderground v.1.15,2013-06-11 08:10:00,
2013-06-11 01:15:00,50.3,46.6,30.00,NW,323,1.0,3.0,87,0.00,,,0.00,Wunderground v.1.15,2013-06-11 08:15:00,
2013-06-11 01:20:00,50.3,46.6,30.00,NW,323,1.0,1.0,87,0.00,,,0.00,Wunderground v.1.15,2013-06-11 08:20:00,
2013-06-11 01:25:00,50.3,46.6,30.00,NNW,338,1.0,2.0,87,0.00,,,0.00,Wunderground v.1.15,2013-06-11 08:25:00,
2013-06-11 01:30:00,50.3,46.6,30.00,NNW,338,1.0,1.0,87,0.00,,,0.00,Wunderground v.1.15,2013-06-11 08:30:00,
2013-06-11 01:35:00,50.2,46.5,30.00,NNW,338,0.0,1.0,87,0.00,,,0.00,Wunderground v.1.15,2013-06-11 08:35:00,
2013-06-11 01:40:00,50.3,46.6,30.00,NNW,338,1.0,1.0,87,0.00,,,0.00,Wunderground v.1.15,2013-06-11 08:40:00,
2013-06-11 01:45:00,50.3,46.6,30.00,NNW,338,1.0,1.0,87,0.00,,,0.00,Wunderground v.1.15,2013-06-11 08:45:00,
2013-06-11 01:55:00,50.3,46.6,30.00,NNW,339,1.0,1.0,87,0.00,,,0.00,Wunderground v.1.15,2013-06-11 08:55:00,
2013-06-11 02:00:00,50.3,46.6,30.00,NNW,339,1.0,1.0,87,0.00,,,0.00,Wunderground v.1.15,2013-06-11 09:00:00,
2013-06-11 02:05:00,50.3,46.6,30.00,NNW,339,0.0,1.0,87,0.00,,,0.00,Wunderground v.1.15,2013-06-11 09:05:00,
2013-06-11 02:10:00,50.2,46.5,30.00,NNW,339,0.0,0.0,87,0.00,,,0.00,Wunderground v.1.15,2013-06-11 09:10:00,
2013-06-11 02:15:00,50.3,46.6,30.00,NNW,339,0.0,0.0,87,0.00,,,0.00,Wunderground v.1.15,2013-06-11 09:15:00,
2013-06-11 02:20:00,50.3,46.6,30.00,NNW,340,0.0,0.0,87,0.00,,,0.00,Wunderground v.1.15,2013-06-11 09:20:00,
2013-06-11 02:25:00,50.3,46.6,30.00,NNW,340,0.0,0.0,87,0.00,,,0.00,Wunderground v.1.15,2013-06-11 09:25:00,
2013-06-11 02:30:00,50.3,46.6,30.00,NNW,340,0.0,0.0,87,0.00,,,0.00,Wunderground v.1.15,2013-06-11 09:30:00,
2013-06-11 02:35:00,50.3,46.6,30.00,NNW,341,0.0,5.0,87,0.00,,,0.00,Wunderground v.1.15,2013-06-11 09:35:00,
2013-06-11 02:40:00,50.4,46.7,30.00,NW,306,1.0,1.0,87,0.00,,,0.00,Wunderground v.1.15,2013-06-11 09:40:00,
2013-06-11 02:45:00,50.5,46.8,30.00,NW,323,1.0,1.0,87,0.00,,,0.00,Wunderground v.1.15,2013-06-11 09:45:00,
2013-06-11 02:50:00,50.4,46.7,30.00,NNW,331,1.0,1.0,87,0.00,,,0.00,Wunderground v.1.15,2013-06-11 09:50:00,
2013-06-11 02:55:00,50.4,47.0,30.00,NNW,333,1.0,1.0,88,0.00,,,0.00,Wunderground v.1.15,2013-06-11 09:55:00,
2013-06-11 03:00:00,50.3,46.9,30.00,NNW,333,1.0,1.0,88,0.00,,,0.00,Wunderground v.1.15,2013-06-11 10:00:00,
2013-06-11 03:05:00,50.2,46.8,30.01,NNW,334,0.0,1.0,88,0.00,,,0.00,Wunderground v.1.15,2013-06-11 10:05:00,
2013-06-11 03:10:00,50.2,46.8,30.01,NNW,334,0.0,0.0,88,0.00,,,0.00,Wunderground v.1.15,2013-06-11 10:10:00,
2013-06-11 03:15:00,50.2,46.8,30.00,NNW,334,0.0,0.0,88,0.00,,,0.00,Wunderground v.1.15,2013-06-11 10:15:00,
2013-06-11 03:20:00,50.2,46.8,30.00,NNW,334,0.0,0.0,88,0.00,,,0.00,Wunderground v.1.15,2013-06-11 10:20:00,
2013-06-11 03:25:00,50.1,46.7,30.00,NNW,334,0.0,0.0,88,0.00,,,0.00,Wunderground v.1.15,2013-06-11 10:25:00,
2013-06-11 03:30:00,50.1,47.0,30.01,NNW,334,0.0,0.0,89,0.00,,,0.00,Wunderground v.1.15,2013-06-11 10:30:00,
2013-06-11 03:35:00,50.1,47.0,30.01,NNW,334,0.0,0.0,89,0.00,,,0.00,Wunderground v.1.15,2013-06-11 10:35:00,
2013-06-11 03:40:00,50.1,47.0,30.01,NNW,334,0.0,0.0,89,0.00,,,0.00,Wunderground v.1.15,2013-06-11 10:40:00,
2013-06-11 03:45:00,50.2,47.1,30.00,NNW,334,0.0,0.0,89,0.00,,,0.00,Wunderground v.1.15,2013-06-11 10:45:00,
2013-06-11 03:50:00,50.2,47.1,30.00,NNW,334,0.0,0.0,89,0.00,,,0.00,Wunderground v.1.15,2013-06-11 10:50:00,
2013-06-11 03:55:00,50.2,47.1,30.00,NNW,334,0.0,1.0,89,0.00,,,0.00,Wunderground v.1.15,2013-06-11 10:55:00,
2013-06-11 04:00:00,50.1,47.0,30.00,NNW,334,0.0,0.0,89,0.00,,,0.00,Wunderground v.1.15,2013-06-11 11:00:00,
2013-06-11 04:05:00,50.1,47.0,30.00,NNW,334,0.0,2.0,89,0.00,,,0.00,Wunderground v.1.15,2013-06-11 11:05:00,
2013-06-11 04:10:00,50.2,47.1,30.01,NNW,334,1.0,1.0,89,0.00,,,0.00,Wunderground v.1.15,2013-06-11 11:10:00,
2013-06-11 04:15:00,50.2,47.1,30.01,NNW,334,1.0,1.0,89,0.00,,,0.00,Wunderground v.1.15,2013-06-11 11:15:00,
2013-06-11 04:20:00,50.3,47.2,30.01,NNW,334,0.0,0.0,89,0.00,,,0.00,Wunderground v.1.15,2013-06-11 11:20:00,
2013-06-11 04:25:00,50.3,47.2,30.01,NNW,334,0.0,0.0,89,0.00,,,0.00,Wunderground v.1.15,2013-06-11 11:25:00,
2013-06-11 04:30:00,50.3,47.5,30.01,NNW,334,0.0,0.0,90,0.00,,,0.00,Wunderground v.1.15,2013-06-11 11:30:00,
2013-06-11 04:35:00,50.3,47.5,30.01,NNW,334,0.0,0.0,90,0.00,,,0.00,Wunderground v.1.15,2013-06-11 11:35:00,
2013-06-11 04:40:00,50.3,47.5,30.01,NNW,334,0.0,0.0,90,0.00,,,0.00,Wunderground v.1.15,2013-06-11 11:40:00,
2013-06-11 04:45:00,50.2,47.4,30.01,NNW,334,0.0,1.0,90,0.00,,,0.00,Wunderground v.1.15,2013-06-11 11:45:00,
2013-06-11 04:50:00,50.2,47.4,30.01,NNW,334,0.0,0.0,90,0.00,,,0.00,Wunderground v.1.15,2013-06-11 11:50:00,
2013-06-11 04:55:00,50.2,47.4,30.02,WSW,254,1.0,1.0,90,0.00,,,0.00,Wunderground v.1.15,2013-06-11 11:55:00,
2013-06-11 05:00:00,50.3,47.2,30.01,WSW,238,1.0,2.0,89,0.00,,,0.01,Wunderground v.1.15,2013-06-11 12:00:00,
2013-06-11 05:05:00,50.4,47.3,30.02,WSW,238,1.0,2.0,89,0.00,,,0.01,Wunderground v.1.15,2013-06-11 12:05:00,
2013-06-11 05:10:00,50.3,47.5,30.02,WSW,239,0.0,2.0,90,0.00,,,0.01,Wunderground v.1.15,2013-06-11 12:10:00,
2013-06-11 05:15:00,50.1,47.3,30.02,WSW,239,0.0,2.0,90,0.00,,,0.01,Wunderground v.1.15,2013-06-11 12:15:00,
2013-06-11 05:20:00,49.9,47.4,30.02,SW,232,1.0,1.0,91,0.00,,,0.01,Wunderground v.1.15,2013-06-11 12:20:00,
2013-06-11 05:25:00,49.7,47.2,30.02,SW,223,2.0,2.0,91,0.00,,,0.01,Wunderground v.1.15,2013-06-11 12:25:00,
2013-06-11 05:30:00,49.7,47.5,30.02,SW,223,1.0,1.0,92,0.00,,,0.01,Wunderground v.1.15,2013-06-11 12:30:00,
2013-06-11 05:35:00,49.6,47.4,30.02,WSW,238,0.0,1.0,92,0.00,,,0.01,Wunderground v.1.15,2013-06-11 12:35:00,
2013-06-11 05:40:00,49.5,47.3,30.02,SW,228,0.0,1.0,92,0.00,,,0.01,Wunderground v.1.15,2013-06-11 12:40:00,
2013-06-11 05:45:00,49.4,47.5,30.02,SW,228,0.0,1.0,93,0.00,,,0.01,Wunderground v.1.15,2013-06-11 12:45:00,
2013-06-11 05:55:00,49.4,47.5,30.02,SW,228,0.0,0.0,93,0.00,,,0.02,Wunderground v.1.15,2013-06-11 12:55:00,
2013-06-11 06:00:00,49.3,47.4,30.02,SW,228,0.0,0.0,93,0.00,,,0.02,Wunderground v.1.15,2013-06-11 13:00:00,
2013-06-11 06:05:00,49.3,47.4,30.02,ENE,78,1.0,1.0,93,0.00,,,0.02,Wunderground v.1.15,2013-06-11 13:05:00,
2013-06-11 06:10:00,49.3,47.4,30.03,ENE,78,1.0,1.0,93,0.00,,,0.02,Wunderground v.1.15,2013-06-11 13:10:00,
2013-06-11 06:15:00,49.2,47.3,30.03,ENE,69,0.0,1.0,93,0.00,,,0.02,Wunderground v.1.15,2013-06-11 13:15:00,
2013-06-11 06:20:00,48.9,47.0,30.03,ENE,72,1.0,1.0,93,0.00,,,0.02,Wunderground v.1.15,2013-06-11 13:20:00,
2013-06-11 06:25:00,48.9,47.0,30.03,ENE,71,1.0,1.0,93,0.00,,,0.02,Wunderground v.1.15,2013-06-11 13:25:00,
2013-06-11 06:30:00,48.9,47.2,30.03,ENE,78,1.0,1.0,94,0.00,,,0.03,Wunderground v.1.15,2013-06-11 13:30:00,
2013-06-11 06:35:00,48.9,47.2,30.04,East,80,1.0,1.0,94,0.00,,,0.03,Wunderground v.1.15,2013-06-11 13:35:00,
2013-06-11 06:40:00,48.8,47.2,30.04,East,80,0.0,0.0,94,0.00,,,0.03,Wunderground v.1.15,2013-06-11 13:40:00,
2013-06-11 06:45:00,48.9,47.2,30.04,East,80,0.0,0.0,94,0.00,,,0.03,Wunderground v.1.15,2013-06-11 13:45:00,
2013-06-11 06:50:00,48.9,47.2,30.04,East,80,0.0,2.0,94,0.00,,,0.03,Wunderground v.1.15,2013-06-11 13:50:00,
2013-06-11 06:55:00,48.7,47.1,30.04,East,80,1.0,2.0,94,0.00,,,0.03,Wunderground v.1.15,2013-06-11 13:55:00,
2013-06-11 07:00:00,48.8,47.2,30.04,East,80,1.0,1.0,94,0.00,,,0.03,Wunderground v.1.15,2013-06-11 14:00:00,
2013-06-11 07:05:00,48.9,47.2,30.04,SE,128,0.0,1.0,94,0.00,,,0.03,Wunderground v.1.15,2013-06-11 14:05:00,
2013-06-11 07:10:00,49.0,47.3,30.04,South,188,0.0,0.0,94,0.00,,,0.03,Wunderground v.1.15,2013-06-11 14:10:00,
2013-06-11 07:15:00,49.0,47.3,30.04,South,188,0.0,0.0,94,0.00,,,0.03,Wunderground v.1.15,2013-06-11 14:15:00,
2013-06-11 07:20:00,49.2,47.5,30.04,South,188,0.0,0.0,94,0.00,,,0.03,Wunderground v.1.15,2013-06-11 14:20:00,
2013-06-11 07:25:00,49.2,47.5,30.04,ESE,113,0.0,2.0,94,0.00,,,0.03,Wunderground v.1.15,2013-06-11 14:25:00,
2013-06-11 07:30:00,49.2,47.5,30.04,ESE,104,1.0,1.0,94,0.00,,,0.03,Wunderground v.1.15,2013-06-11 14:30:00,
2013-06-11 07:40:00,49.4,47.7,30.04,NNE,31,0.0,0.0,94,0.00,,,0.03,Wunderground v.1.15,2013-06-11 14:40:00,
2013-06-11 07:45:00,49.4,47.7,30.04,NNE,32,0.0,1.0,94,0.00,,,0.03,Wunderground v.1.15,2013-06-11 14:45:00,
2013-06-11 07:50:00,49.4,47.7,30.04,NNE,32,0.0,0.0,94,0.00,,,0.03,Wunderground v.1.15,2013-06-11 14:50:00,
2013-06-11 07:55:00,49.5,47.8,30.04,NNE,32,0.0,0.0,94,0.00,,,0.03,Wunderground v.1.15,2013-06-11 14:55:00,
2013-06-11 08:00:00,49.6,47.9,30.05,NNE,32,0.0,0.0,94,0.00,,,0.03,Wunderground v.1.15,2013-06-11 15:00:00,
2013-06-11 08:05:00,50.1,48.7,30.05,NNE,32,0.0,0.0,95,0.00,,,0.03,Wunderground v.1.15,2013-06-11 15:05:00,
2013-06-11 08:10:00,50.5,49.1,30.05,NNE,32,0.0,2.0,95,0.00,,,0.03,Wunderground v.1.15,2013-06-11 15:10:00,
2013-06-11 08:15:00,50.6,48.7,30.05,ENE,64,0.0,2.0,93,0.00,,,0.03,Wunderground v.1.15,2013-06-11 15:15:00,
2013-06-11 08:20:00,50.8,48.8,30.05,ENE,64,0.0,0.0,93,0.00,,,0.03,Wunderground v.1.15,2013-06-11 15:20:00,
2013-06-11 08:25:00,50.9,48.9,30.05,NE,48,1.0,2.0,93,0.00,,,0.03,Wunderground v.1.15,2013-06-11 15:25:00,
2013-06-11 08:30:00,51.0,49.0,30.05,NE,56,2.0,2.0,93,0.00,,,0.03,Wunderground v.1.15,2013-06-11 15:30:00,
2013-06-11 08:35:00,51.1,48.9,30.05,ENE,63,1.0,2.0,92,0.00,,,0.03,Wunderground v.1.15,2013-06-11 15:35:00,
2013-06-11 08:40:00,51.3,49.1,30.05,ENE,63,1.0,2.0,92,0.00,,,0.03,Wunderground v.1.15,2013-06-11 15:40:00,
2013-06-11 08:45:00,51.4,48.9,30.05,ENE,62,1.0,2.0,91,0.00,,,0.03,Wunderground v.1.15,2013-06-11 15:45:00,
2013-06-11 08:50:00,51.5,49.0,30.05,ENE,63,2.0,2.0,91,0.00,,,0.03,Wunderground v.1.15,2013-06-11 15:50:00,
2013-06-11 08:55:00,51.7,49.2,30.06,ENE,63,1.0,2.0,91,0.00,,,0.03,Wunderground v.1.15,2013-06-11 15:55:00,
2013-06-11 09:00:00,51.8,49.0,30.06,NE,50,1.0,1.0,90,0.00,,,0.04,Wunderground v.1.15,2013-06-11 16:00:00,
2013-06-11 09:05:00,51.6,48.5,30.06,NE,50,1.0,1.0,89,0.09,,,0.05,Wunderground v.1.15,2013-06-11 16:05:00,
2013-06-11 09:10:00,51.7,48.6,30.06,NE,50,0.0,0.0,89,0.09,,,0.05,Wunderground v.1.15,2013-06-11 16:10:00,
2013-06-11 09:15:00,51.8,49.0,30.06,NE,50,0.0,0.0,90,0.05,,,0.05,Wunderground v.1.15,2013-06-11 16:15:00,
2013-06-11 09:20:00,52.1,49.3,30.06,NE,50,0.0,1.0,90,0.04,,,0.05,Wunderground v.1.15,2013-06-11 16:20:00,
2013-06-11 09:25:00,52.7,50.1,30.06,NE,50,0.0,1.0,91,0.00,,,0.05,Wunderground v.1.15,2013-06-11 16:25:00,
2013-06-11 09:30:00,53.5,50.6,30.06,NE,50,1.0,1.0,90,0.00,,,0.05,Wunderground v.1.15,2013-06-11 16:30:00,
2013-06-11 09:35:00,53.7,50.5,30.06,ENE,67,1.0,1.0,89,0.00,,,0.05,Wunderground v.1.15,2013-06-11 16:35:00,
2013-06-11 09:40:00,53.7,50.2,30.06,ENE,62,1.0,1.0,88,0.00,,,0.05,Wunderground v.1.15,2013-06-11 16:40:00,
2013-06-11 09:45:00,53.6,49.8,30.06,NE,54,1.0,2.0,87,0.00,,,0.05,Wunderground v.1.15,2013-06-11 16:45:00,
2013-06-11 09:50:00,53.7,50.2,30.06,NNW,341,2.0,4.0,88,0.00,,,0.05,Wunderground v.1.15,2013-06-11 16:50:00,
2013-06-11 09:55:00,53.8,50.3,30.06,NNE,19,3.0,5.0,88,0.00,,,0.05,Wunderground v.1.15,2013-06-11 16:55:00,
2013-06-11 10:00:00,53.7,50.2,30.06,NE,46,3.0,3.0,88,0.00,,,0.05,Wunderground v.1.15,2013-06-11 17:00:00,
2013-06-11 10:05:00,53.7,49.9,30.06,NNE,31,2.0,3.0,87,0.00,,,0.05,Wunderground v.1.15,2013-06-11 17:05:00,
2013-06-11 10:10:00,53.9,50.1,30.06,NNE,31,1.0,1.0,87,0.00,,,0.05,Wunderground v.1.15,2013-06-11 17:10:00,
2013-06-11 10:15:00,53.9,49.8,30.07,East,94,1.0,2.0,86,0.00,,,0.05,Wunderground v.1.15,2013-06-11 17:15:00,
2013-06-11 10:20:00,53.7,49.6,30.07,West,277,3.0,10.0,86,0.00,,,0.05,Wunderground v.1.15,2013-06-11 17:20:00,
2013-06-11 10:25:00,53.2,48.5,30.07,West,268,6.0,10.0,84,0.00,,,0.05,Wunderground v.1.15,2013-06-11 17:25:00,
2013-06-11 10:30:00,53.3,47.9,30.07,WSW,238,8.0,8.0,82,0.00,,,0.05,Wunderground v.1.15,2013-06-11 17:30:00,
2013-06-11 10:35:00,53.5,48.5,30.07,NW,326,7.0,8.0,83,0.00,,,0.05,Wunderground v.1.15,2013-06-11 17:35:00,
2013-06-11 10:40:00,53.5,48.5,30.07,WNW,298,5.0,5.0,83,0.00,,,0.05,Wunderground v.1.15,2013-06-11 17:40:00,
2013-06-11 10:45:00,53.8,48.8,30.07,WNW,286,4.0,5.0,83,0.00,,,0.05,Wunderground v.1.15,2013-06-11 17:45:00,
2013-06-11 10:50:00,53.9,48.9,30.07,West,275,5.0,5.0,83,0.00,,,0.05,Wunderground v.1.15,2013-06-11 17:50:00,
2013-06-11 10:55:00,53.7,48.7,30.07,NW,304,4.0,5.0,83,0.00,,,0.05,Wunderground v.1.15,2013-06-11 17:55:00,
2013-06-11 11:05:00,54.0,48.0,30.07,WNW,301,5.0,8.0,80,0.00,,,0.05,Wunderground v.1.15,2013-06-11 18:05:00,
2013-06-11 11:10:00,54.7,46.9,30.07,WNW,283,5.0,6.0,75,0.00,,,0.05,Wunderground v.1.15,2013-06-11 18:10:00,
2013-06-11 11:15:00,54.9,47.1,30.07,WNW,283,5.0,6.0,75,0.00,,,0.05,Wunderground v.1.15,2013-06-11 18:15:00,
2013-06-11 11:20:00,55.0,47.6,30.07,West,277,5.0,7.0,76,0.00,,,0.05,Wunderground v.1.15,2013-06-11 18:20:00,
2013-06-11 11:25:00,55.3,47.9,30.07,WNW,299,5.0,7.0,76,0.00,,,0.05,Wunderground v.1.15,2013-06-11 18:25:00,
2013-06-11 11:30:00,55.5,47.7,30.08,West,273,5.0,5.0,75,0.00,,,0.05,Wunderground v.1.15,2013-06-11 18:30:00,
2013-06-11 11:35:00,55.5,47.0,30.08,West,277,5.0,7.0,73,0.00,,,0.05,Wunderground v.1.15,2013-06-11 18:35:00,
2013-06-11 11:40:00,55.8,45.4,30.08,West,281,6.0,6.0,68,0.00,,,0.05,Wunderground v.1.15,2013-06-11 18:40:00,
2013-06-11 11:45:00,56.2,46.5,30.08,West,271,7.0,8.0,70,0.00,,,0.05,Wunderground v.1.15,2013-06-11 18:45:00,
2013-06-11 11:50:00,56.4,45.2,30.08,West,278,8.0,11.0,66,0.00,,,0.06,Wunderground v.1.15,2013-06-11 18:50:00,
2013-06-11 11:55:00,56.9,46.8,30.08,WNW,292,8.0,11.0,69,0.00,,,0.06,Wunderground v.1.15,2013-06-11 18:55:00,
2013-06-11 12:00:00,57.0,45.3,30.07,West,272,7.0,7.0,65,0.00,,,0.06,Wunderground v.1.15,2013-06-11 19:00:00,
2013-06-11 12:05:00,57.2,45.5,30.08,West,273,7.0,8.0,65,0.00,,,0.06,Wunderground v.1.15,2013-06-11 19:05:00,
2013-06-11 12:10:00,56.9,48.3,30.08,West,276,7.0,13.0,73,0.00,,,0.06,Wunderground v.1.15,2013-06-11 19:10:00,
2013-06-11 12:15:00,56.6,48.0,30.08,WNW,288,10.0,13.0,73,0.00,,,0.06,Wunderground v.1.15,2013-06-11 19:15:00,
2013-06-11 12:20:00,56.5,48.7,30.08,West,281,10.0,14.0,75,0.00,,,0.06,Wunderground v.1.15,2013-06-11 19:20:00,
2013-06-11 12:25:00,56.4,47.9,30.08,West,267,10.0,14.0,73,0.00,,,0.06,Wunderground v.1.15,2013-06-11 19:25:00,
2013-06-11 12:30:00,56.7,47.0,30.08,West,279,10.0,11.0,70,0.00,,,0.06,Wunderground v.1.15,2013-06-11 19:30:00,
2013-06-11 12:35:00,56.5,46.4,30.08,West,272,10.0,11.0,69,0.00,,,0.06,Wunderground v.1.15,2013-06-11 19:35:00,
2013-06-11 12:40:00,57.0,46.5,30.08,WNW,290,8.0,8.0,68,0.00,,,0.06,Wunderground v.1.15,2013-06-11 19:40:00,
2013-06-11 12:45:00,57.6,49.0,30.08,WNW,298,7.0,10.0,73,0.00,,,0.06,Wunderground v.1.15,2013-06-11 19:45:00,
2013-06-11 12:50:00,56.7,48.5,30.08,WNW,282,10.0,11.0,74,0.00,,,0.06,Wunderground v.1.15,2013-06-11 19:50:00,
2013-06-11 12:55:00,56.3,48.5,30.09,WNW,288,12.0,12.0,75,0.00,,,0.06,Wunderground v.1.15,2013-06-11 19:55:00,
2013-06-11 13:00:00,55.7,47.9,30.09,West,267,11.0,14.0,75,0.00,,,0.06,Wunderground v.1.15,2013-06-11 20:00:00,
2013-06-11 13:05:00,54.7,46.2,30.09,WSW,242,11.0,14.0,73,0.00,,,0.07,Wunderground v.1.15,2013-06-11 20:05:00,
2013-06-11 13:10:00,54.6,47.2,30.09,WSW,238,9.0,9.0,76,0.00,,,0.07,Wunderground v.1.15,2013-06-11 20:10:00,
2013-06-11 13:15:00,54.3,46.9,30.09,WSW,252,6.0,9.0,76,0.00,,,0.07,Wunderground v.1.15,2013-06-11 20:15:00,
2013-06-11 13:25:00,54.6,46.8,30.09,WNW,284,4.0,5.0,75,0.00,,,0.07,Wunderground v.1.15,2013-06-11 20:25:00,
2013-06-11 13:30:00,55.2,47.8,30.09,West,274,4.0,4.0,76,0.00,,,0.07,Wunderground v.1.15,2013-06-11 20:30:00,
2013-06-11 13:35:00,55.9,47.4,30.09,WNW,286,5.0,5.0,73,0.00,,,0.07,Wunderground v.1.15,2013-06-11 20:35:00,
2013-06-11 13:40:00,56.4,47.5,30.09,WSW,252,7.0,9.0,72,0.00,,,0.07,Wunderground v.1.15,2013-06-11 20:40:00,
2013-06-11 13:50:00,56.0,48.9,30.09,NW,324,6.0,6.0,77,0.00,,,0.07,Wunderground v.1.15,2013-06-11 20:50:00,
2013-06-11 13:55:00,56.3,49.5,30.09,West,281,6.0,9.0,78,0.00,,,0.07,Wunderground v.1.15,2013-06-11 20:55:00,
2013-06-11 14:00:00,56.2,48.7,30.09,WNW,284,7.0,8.0,76,0.00,,,0.07,Wunderground v.1.15,2013-06-11 21:00:00,
2013-06-11 14:05:00,56.4,49.3,30.09,NW,313,8.0,8.0,77,0.00,,,0.07,Wunderground v.1.15,2013-06-11 21:05:00,
2013-06-11 14:10:00,56.5,49.0,30.09,WNW,287,7.0,7.0,76,0.00,,,0.07,Wunderground v.1.15,2013-06-11 21:10:00,
2013-06-11 14:15:00,56.4,48.6,30.10,West,264,6.0,10.0,75,0.00,,,0.07,Wunderground v.1.15,2013-06-11 21:15:00,
2013-06-11 14:25:00,56.6,47.7,30.10,WSW,248,6.0,8.0,72,0.00,,,0.07,Wunderground v.1.15,2013-06-11 21:25:00,
2013-06-11 14:30:00,56.9,48.0,30.10,West,280,4.0,7.0,72,0.00,,,0.07,Wunderground v.1.15,2013-06-11 21:30:00,
2013-06-11 14:35:00,57.0,47.7,30.10,WNW,282,5.0,7.0,71,0.00,,,0.07,Wunderground v.1.15,2013-06-11 21:35:00,
2013-06-11 14:40:00,57.3,46.4,30.10,WSW,251,6.0,6.0,67,0.00,,,0.07,Wunderground v.1.15,2013-06-11 21:40:00,
2013-06-11 14:45:00,57.5,46.2,30.10,WSW,252,4.0,6.0,66,0.00,,,0.07,Wunderground v.1.15,2013-06-11 21:45:00,
2013-06-11 14:50:00,58.0,46.7,30.10,NW,308,3.0,9.0,66,0.00,,,0.07,Wunderground v.1.15,2013-06-11 21:50:00,
2013-06-11 15:00:00,57.6,45.9,30.10,West,262,9.0,9.0,65,0.00,,,0.07,Wunderground v.1.15,2013-06-11 22:00:00,
2013-06-11 15:05:00,57.5,46.6,30.10,WSW,255,9.0,9.0,67,0.00,,,0.07,Wunderground v.1.15,2013-06-11 22:05:00,
2013-06-11 15:10:00,57.3,47.2,30.10,WNW,282,8.0,8.0,69,0.00,,,0.07,Wunderground v.1.15,2013-06-11 22:10:00,
2013-06-11 15:15:00,57.1,47.4,30.11,West,265,8.0,9.0,70,0.00,,,0.07,Wunderground v.1.15,2013-06-11 22:15:00,
2013-06-11 15:20:00,57.0,46.9,30.11,West,261,8.0,9.0,69,0.00,,,0.07,Wunderground v.1.15,2013-06-11 22:20:00,
2013-06-11 15:25:00,56.9,47.2,30.11,West,275,9.0,9.0,70,0.00,,,0.07,Wunderground v.1.15,2013-06-11 22:25:00,
2013-06-11 15:30:00,56.6,48.0,30.11,West,279,10.0,12.0,73,0.00,,,0.07,Wunderground v.1.15,2013-06-11 22:30:00,
2013-06-11 15:35:00,56.0,48.2,30.11,West,268,11.0,16.0,75,0.00,,,0.07,Wunderground v.1.15,2013-06-11 22:35:00,
2013-06-11 15:40:00,55.3,47.5,30.12,West,274,12.0,14.0,75,0.00,,,0.07,Wunderground v.1.15,2013-06-11 22:40:00,
2013-06-11 15:45:00,55.1,47.7,30.11,WNW,284,9.0,14.0,76,0.00,,,0.07,Wunderground v.1.15,2013-06-11 22:45:00,
2013-06-11 15:50:00,55.8,47.3,30.11,West,273,8.0,9.0,73,0.00,,,0.07,Wunderground v.1.15,2013-06-11 22:50:00,
2013-06-11 15:55:00,56.3,47.4,30.11,West,263,8.0,9.0,72,0.00,,,0.07,Wunderground v.1.15,2013-06-11 22:55:00,
2013-06-11 16:00:00,56.3,48.5,30.11,WNW,284,9.0,10.0,75,0.00,,,0.07,Wunderground v.1.15,2013-06-11 23:00:00,
2013-06-11 16:05:00,55.9,48.1,30.11,WNW,284,10.0,10.0,75,0.00,,,0.07,Wunderground v.1.15,2013-06-11 23:05:00,
2013-06-11 16:10:00,55.9,48.4,30.12,West,277,10.0,11.0,76,0.00,,,0.07,Wunderground v.1.15,2013-06-11 23:10:00,
2013-06-11 16:15:00,55.9,48.8,30.12,WNW,286,10.0,11.0,77,0.00,,,0.07,Wunderground v.1.15,2013-06-11 23:15:00,
2013-06-11 16:20:00,56.3,48.5,30.12,West,271,9.0,9.0,75,0.00,,,0.07,Wunderground v.1.15,2013-06-11 23:20:00,
2013-06-11 16:25:00,56.5,48.3,30.12,WNW,283,8.0,9.0,74,0.00,,,0.07,Wunderground v.1.15,2013-06-11 23:25:00,
2013-06-11 16:30:00,56.7,48.5,30.12,West,281,8.0,8.0,74,0.00,,,0.07,Wunderground v.1.15,2013-06-11 23:30:00,
2013-06-11 16:35:00,56.8,47.9,30.12,West,266,8.0,10.0,72,0.00,,,0.07,Wunderground v.1.15,2013-06-11 23:35:00,
2013-06-11 16:40:00,56.9,47.6,30.12,West,267,8.0,11.0,71,0.00,,,0.07,Wunderground v.1.15,2013-06-11 23:40:00,
2013-06-11 16:45:00,56.9,48.3,30.12,West,279,9.0,11.0,73,0.00,,,0.07,Wunderground v.1.15,2013-06-11 23:45:00,
2013-06-11 16:55:00,56.7,48.1,30.12,West,273,10.0,15.0,73,0.00,,,0.07,Wunderground v.1.15,2013-06-11 23:55:00,
2013-06-11 17:00:00,56.7,48.5,30.12,West,259,10.0,12.0,74,0.00,,,0.07,Wunderground v.1.15,2013-06-12 00:00:00,
2013-06-11 17:05:00,56.7,48.1,30.12,West,266,10.0,12.0,73,0.00,,,0.07,Wunderground v.1.15,2013-06-12 00:05:00,
2013-06-11 17:10:00,56.7,47.4,30.12,WNW,292,9.0,9.0,71,0.00,,,0.07,Wunderground v.1.15,2013-06-12 00:10:00,
2013-06-11 17:15:00,57.3,47.6,30.12,WNW,282,8.0,10.0,70,0.00,,,0.07,Wunderground v.1.15,2013-06-12 00:15:00,
2013-06-11 17:25:00,56.9,47.6,30.12,West,259,10.0,10.0,71,0.00,,,0.07,Wunderground v.1.15,2013-06-12 00:25:00,
2013-06-11 17:30:00,56.9,47.2,30.12,WNW,296,10.0,10.0,70,0.00,,,0.07,Wunderground v.1.15,2013-06-12 00:30:00,
2013-06-11 17:40:00,57.0,48.1,30.12,NW,313,8.0,8.0,72,0.00,,,0.07,Wunderground v.1.15,2013-06-12 00:40:00,
2013-06-11 17:45:00,57.0,46.9,30.12,WSW,240,6.0,8.0,69,0.00,,,0.07,Wunderground v.1.15,2013-06-12 00:45:00,
2013-06-11 17:50:00,57.1,47.4,30.12,NW,319,5.0,5.0,70,0.00,,,0.07,Wunderground v.1.15,2013-06-12 00:50:00,
2013-06-11 17:55:00,57.0,47.3,30.12,West,277,6.0,9.0,70,0.00,,,0.07,Wunderground v.1.15,2013-06-12 00:55:00,
2013-06-11 18:00:00,57.0,47.3,30.12,WSW,254,7.0,7.0,70,0.00,,,0.07,Wunderground v.1.15,2013-06-12 01:00:00,
2013-06-11 18:05:00,57.0,47.3,30.12,WNW,293,8.0,9.0,70,0.00,,,0.07,Wunderground v.1.15,2013-06-12 01:05:00,
2013-06-11 18:10:00,56.9,47.2,30.12,West,268,9.0,10.0,70,0.00,,,0.07,Wunderground v.1.15,2013-06-12 01:10:00,
2013-06-11 18:15:00,57.0,46.9,30.12,West,274,8.0,10.0,69,0.00,,,0.07,Wunderground v.1.15,2013-06-12 01:15:00,
2013-06-11 18:20:00,57.0,46.9,30.12,WNW,298,7.0,7.0,69,0.00,,,0.07,Wunderground v.1.15,2013-06-12 01:20:00,
2013-06-11 18:25:00,56.7,46.6,30.12,WNW,295,9.0,9.0,69,0.00,,,0.07,Wunderground v.1.15,2013-06-12 01:25:00,
2013-06-11 18:30:00,56.6,47.7,30.12,WNW,287,10.0,10.0,72,0.00,,,0.07,Wunderground v.1.15,2013-06-12 01:30:00,
2013-06-11 18:35:00,56.5,47.2,30.12,NW,305,8.0,10.0,71,0.00,,,0.07,Wunderground v.1.15,2013-06-12 01:35:00,
2013-06-11 18:40:00,56.4,47.5,30.12,WNW,297,8.0,9.0,72,0.00,,,0.07,Wunderground v.1.15,2013-06-12 01:40:00,
2013-06-11 18:45:00,56.4,47.5,30.12,West,272,8.0,14.0,72,0.00,,,0.07,Wunderground v.1.15,2013-06-12 01:45:00,
2013-06-11 18:50:00,56.2,47.3,30.12,West,281,9.0,9.0,72,0.00,,,0.07,Wunderground v.1.15,2013-06-12 01:50:00,
2013-06-11 18:55:00,56.1,47.9,30.12,WSW,254,9.0,9.0,74,0.00,,,0.07,Wunderground v.1.15,2013-06-12 01:55:00,
2013-06-11 19:00:00,56.0,47.8,30.12,NW,305,9.0,9.0,74,0.00,,,0.07,Wunderground v.1.15,2013-06-12 02:00:00,
2013-06-11 19:05:00,56.0,48.2,30.12,West,280,8.0,11.0,75,0.00,,,0.07,Wunderground v.1.15,2013-06-12 02:05:00,
2013-06-11 19:15:00,55.7,48.2,30.13,WNW,296,10.0,10.0,76,0.00,,,0.07,Wunderground v.1.15,2013-06-12 02:15:00,
2013-06-11 19:20:00,55.7,48.6,30.13,WNW,289,9.0,9.0,77,0.00,,,0.07,Wunderground v.1.15,2013-06-12 02:20:00,
2013-06-11 19:25:00,55.4,47.6,30.13,West,274,8.0,9.0,75,0.00,,,0.07,Wunderground v.1.15,2013-06-12 02:25:00,
2013-06-11 19:35:00,55.4,47.6,30.13,West,269,9.0,9.0,75,0.00,,,0.07,Wunderground v.1.15,2013-06-12 02:35:00,
2013-06-11 19:40:00,55.2,47.4,30.13,West,267,9.0,11.0,75,0.00,,,0.07,Wunderground v.1.15,2013-06-12 02:40:00,
2013-06-11 19:45:00,55.1,47.3,30.13,WSW,257,9.0,11.0,75,0.00,,,0.07,Wunderground v.1.15,2013-06-12 02:45:00,
2013-06-11 19:50:00,55.1,47.3,30.13,WNW,286,8.0,9.0,75,0.00,,,0.07,Wunderground v.1.15,2013-06-12 02:50:00,
2013-06-11 19:55:00,55.1,47.0,30.13,WSW,258,8.0,10.0,74,0.00,,,0.07,Wunderground v.1.15,2013-06-12 02:55:00,
2013-06-11 20:00:00,55.0,47.2,30.13,West,273,9.0,9.0,75,0.00,,,0.07,Wunderground v.1.15,2013-06-12 03:00:00,
2013-06-11 20:05:00,55.0,47.2,30.13,West,259,9.0,9.0,75,0.00,,,0.07,Wunderground v.1.15,2013-06-12 03:05:00,
2013-06-11 20:10:00,55.1,47.7,30.13,West,267,8.0,8.0,76,0.00,,,0.07,Wunderground v.1.15,2013-06-12 03:10:00,
2013-06-11 20:15:00,54.9,47.5,30.13,West,271,8.0,10.0,76,0.00,,,0.07,Wunderground v.1.15,2013-06-12 03:15:00,
2013-06-11 20:20:00,54.9,47.5,30.13,West,259,9.0,9.0,76,0.00,,,0.07,Wunderground v.1.15,2013-06-12 03:20:00,
2013-06-11 20:25:00,54.8,48.1,30.14,West,274,8.0,9.0,78,0.00,,,0.07,Wunderground v.1.15,2013-06-12 03:25:00,
2013-06-11 20:30:00,54.8,47.7,30.14,West,261,6.0,6.0,77,0.00,,,0.07,Wunderground v.1.15,2013-06-12 03:30:00,
2013-06-11 20:35:00,54.7,47.6,30.14,SW,227,6.0,6.0,77,0.00,,,0.07,Wunderground v.1.15,2013-06-12 03:35:00,
2013-06-11 20:45:00,54.6,47.9,30.14,West,267,5.0,6.0,78,0.00,,,0.07,Wunderground v.1.15,2013-06-12 03:45:00,
2013-06-11 20:50:00,54.5,47.8,30.14,WNW,284,5.0,6.0,78,0.00,,,0.07,Wunderground v.1.15,2013-06-12 03:50:00,
2013-06-11 20:55:00,54.5,47.8,30.14,WSW,256,5.0,6.0,78,0.00,,,0.07,Wunderground v.1.15,2013-06-12 03:55:00,
2013-06-11 21:00:00,54.5,47.4,30.14,WSW,238,5.0,5.0,77,0.00,,,0.07,Wunderground v.1.15,2013-06-12 04:00:00,
2013-06-11 21:05:00,54.4,47.7,30.14,West,277,5.0,6.0,78,0.00,,,0.07,Wunderground v.1.15,2013-06-12 04:05:00,
2013-06-11 21:10:00,54.4,47.7,30.14,NW,305,3.0,3.0,78,0.00,,,0.07,Wunderground v.1.15,2013-06-12 04:10:00,
2013-06-11 21:15:00,54.3,47.6,30.14,West,280,2.0,4.0,78,0.00,,,0.07,Wunderground v.1.15,2013-06-12 04:15:00,
2013-06-11 21:20:00,54.2,47.5,30.14,WNW,285,4.0,7.0,78,0.00,,,0.07,Wunderground v.1.15,2013-06-12 04:20:00,
2013-06-11 21:25:00,54.1,47.4,30.14,West,263,5.0,7.0,78,0.00,,,0.07,Wunderground v.1.15,2013-06-12 04:25:00,
2013-06-11 21:30:00,54.0,47.3,30.14,NW,319,3.0,4.0,78,0.00,,,0.07,Wunderground v.1.15,2013-06-12 04:30:00,
2013-06-11 21:35:00,53.8,47.1,30.14,WNW,301,3.0,4.0,78,0.00,,,0.07,Wunderground v.1.15,2013-06-12 04:35:00,
2013-06-11 21:40:00,53.9,47.9,30.14,WNW,290,4.0,8.0,80,0.00,,,0.07,Wunderground v.1.15,2013-06-12 04:40:00,
2013-06-11 21:45:00,53.9,47.5,30.15,WNW,291,5.0,8.0,79,0.00,,,0.07,Wunderground v.1.15,2013-06-12 04:45:00,
2013-06-11 21:50:00,53.9,47.5,30.15,West,274,5.0,5.0,79,0.00,,,0.07,Wunderground v.1.15,2013-06-12 04:50:00,
2013-06-11 21:55:00,53.7,47.7,30.15,West,267,4.0,8.0,80,0.00,,,0.07,Wunderground v.1.15,2013-06-12 04:55:00,
2013-06-11 22:00:00,53.7,47.7,30.15,WSW,252,3.0,3.0,80,0.00,,,0.07,Wunderground v.1.15,2013-06-12 05:00:00,
2013-06-11 22:05:00,53.7,47.7,30.15,West,263,4.0,5.0,80,0.00,,,0.07,Wunderground v.1.15,2013-06-12 05:05:00,
2013-06-11 22:10:00,53.7,47.7,30.15,West,264,4.0,4.0,80,0.00,,,0.07,Wunderground v.1.15,2013-06-12 05:10:00,
2013-06-11 22:15:00,53.6,47.6,30.15,West,277,4.0,4.0,80,0.00,,,0.07,Wunderground v.1.15,2013-06-12 05:15:00,
2013-06-11 22:20:00,53.6,47.6,30.15,WNW,296,4.0,4.0,80,0.00,,,0.07,Wunderground v.1.15,2013-06-12 05:20:00,
2013-06-11 22:25:00,53.4,47.4,30.15,WNW,296,2.0,4.0,80,0.00,,,0.07,Wunderground v.1.15,2013-06-12 05:25:00,
2013-06-11 22:30:00,53.2,47.2,30.15,WNW,296,1.0,1.0,80,0.00,,,0.07,Wunderground v.1.15,2013-06-12 05:30:00,
2013-06-11 22:35:00,53.0,47.3,30.15,WNW,296,1.0,1.0,81,0.00,,,0.07,Wunderground v.1.15,2013-06-12 05:35:00,
2013-06-11 22:40:00,52.9,47.2,30.15,WNW,302,1.0,1.0,81,0.00,,,0.07,Wunderground v.1.15,2013-06-12 05:40:00,
2013-06-11 22:45:00,52.9,47.2,30.15,WNW,293,2.0,5.0,81,0.00,,,0.07,Wunderground v.1.15,2013-06-12 05:45:00,
2013-06-11 22:50:00,53.1,47.1,30.15,WSW,248,3.0,3.0,80,0.00,,,0.07,Wunderground v.1.15,2013-06-12 05:50:00,
2013-06-11 23:00:00,53.3,47.0,30.15,WNW,298,3.0,3.0,79,0.00,,,0.07,Wunderground v.1.15,2013-06-12 06:00:00,
2013-06-11 23:10:00,53.2,46.9,30.15,WNW,302,3.0,3.0,79,0.00,,,0.07,Wunderground v.1.15,2013-06-12 06:10:00,
2013-06-11 23:15:00,53.2,47.2,30.15,WNW,296,3.0,3.0,80,0.00,,,0.07,Wunderground v.1.15,2013-06-12 06:15:00,
2013-06-11 23:25:00,53.0,46.3,30.15,WNW,300,3.0,3.0,78,0.00,,,0.07,Wunderground v.1.15,2013-06-12 06:25:00,
2013-06-11 23:30:00,52.9,46.6,30.15,WNW,300,2.0,2.0,79,0.00,,,0.07,Wunderground v.1.15,2013-06-12 06:30:00,
2013-06-11 23:35:00,52.7,46.0,30.15,WNW,302,1.0,2.0,78,0.00,,,0.07,Wunderground v.1.15,2013-06-12 06:35:00,
2013-06-11 23:40:00,52.6,46.3,30.15,WNW,302,1.0,1.0,79,0.00,,,0.07,Wunderground v.1.15,2013-06-12 06:40:00,
2013-06-11 23:45:00,52.6,46.3,30.15,WNW,302,0.0,1.0,79,0.00,,,0.07,Wunderground v.1.15,2013-06-12 06:45:00,
2013-06-11 23:50:00,52.6,46.6,30.15,West,261,1.0,2.0,80,0.00,,,0.07,Wunderground v.1.15,2013-06-12 06:50:00,
2013-06-11 23:55:00,52.8,47.1,30.15,WNW,283,3.0,3.0,81,0.00,,,0.07,Wunderground v.1.15,2013-06-12 06:55:00,